Location: F?ge?el
(45.8833°N, 22.5833°E)
Time: 13:53:01
(UTC+00:00)

CORIOLIS - Pass Details

Date: 17 November 2025
Orbit: 815 x 836 km, 98.7° (Epoch: 06 December)

Event Time Altitude Azimuth Distance (km) Brightness Sun altitude
Rises 15:49:36 0° 166° (SSE) 3,348 7.4 -9.4°
Reaches altitude 10° 15:51:57 10° 167° (SSE) 2,416 6.6 -9.8°
Maximum altitude 15:57:19 83° 255° (WSW) 832 4.3 -10.7°
Drops below altitude 10° 16:02:41 10° 344° (NNW) 2,422 6.6 -11.6°
Sets 16:05:02 0° 346° (NNW) 3,356 7.3 -12.0°
